Weather History for Elizabethtown, NC

Change the Weather History Date:

Saturday, December 7, 2013

  Actual Average (KILM) Record (KILM)
Temperature  
Mean Temperature 55 °F 50 °F  
Max Temperature 68 °F 62 °F 82 °F (1998)
Min Temperature 42 °F 40 °F 20 °F (1954)
Degree Days  
Heating Degree Days 10 15  
Month to date heating degree days 97  
Since 1 July heating degree days 466  
Cooling Degree Days 0 0  
Month to date cooling degree days 0  
Year to date cooling degree days 2037  
Growing Degree Days 5 (Base 50)    
Moisture  
Dew Point 51 °F    
Average Humidity 92    
Maximum Humidity 99    
Minimum Humidity 82    
Precipitation  
Precipitation 0.31 in 0.11 in 1.88 in (1944)
Month to date precipitation 0.81  
Year to date precipitation 54.80  
Snow  
Snow 0.00 in 0.00 in T in (1968)
Month to date snowfall 0.0  
Since 1 July snowfall 0.0  
Snow Depth -    
Sea Level Pressure  
Sea Level Pressure 30.24 in    
Wind  
Wind Speed 6 mph (NNE)    
Max Wind Speed 9 mph    
Max Gust Speed 23 mph    
Visibility 9 miles    
Events Rain    
T = Trace of Precipitation, MM = Missing Value Source: NWS Daily Summary

Daily Weather History Graph

Daily Weather History Graph

Search for Another Location

Airport:

Trip Planner

Search our weather history database for the weather conditions in past years. The results will help you decide how hot, cold, wet, or windy it might be!

Date:

Astronomy

Dec. 07, 2013 Rise Set
Actual Time 7:08 AM EST 5:03 PM EST
Civil Twilight 6:40 AM EST 5:31 PM EST
Nautical Twilight 6:09 AM EST 6:02 PM EST
Astronomical Twilight 5:38 AM EST 6:33 PM EST
Moon 11:00 AM EST (12/7) 10:33 PM EST (12/7)
Length of Visible Light 10h 50m
Length of Day
9h 55m
Waxing Crescent, 29% of the Moon is Illuminated
Dec 7
Waxing Crescent
Dec 9
First Quarter
Dec 17
Full
Dec 25
Last Quarter
Jan 1
New

Hourly Weather History & Observations

Time (EST) Temp. Windchill Dew Point Humidity Pressure Visibility Wind Dir Wind Speed Gust Speed Precip Events Conditions
12:15 AM 67.1 °F - 64.4 °F 91% 30.08 in 10.0 mi South 8.1 mph - N/A   Clear
12:35 AM 67.3 °F - 64.6 °F 91% 30.08 in 10.0 mi South 8.1 mph - N/A   Clear
12:55 AM 68.0 °F - 64.8 °F 89% 30.08 in 10.0 mi SSW 9.2 mph - N/A   Clear
1:15 AM 67.5 °F - 64.6 °F 90% 30.07 in 10.0 mi South 6.9 mph - N/A   Clear
1:35 AM 67.1 °F - 64.4 °F 91% 30.07 in 10.0 mi South 5.8 mph - N/A   Clear
1:55 AM 67.1 °F - 64.4 °F 91% 30.07 in 10.0 mi South 6.9 mph - N/A   Clear
2:15 AM 67.1 °F - 64.4 °F 91% 30.07 in 10.0 mi SSW 8.1 mph - N/A   Clear
2:35 AM 66.9 °F - 64.6 °F 92% 30.08 in 10.0 mi SSW 4.6 mph - N/A   Clear
2:55 AM 66.6 °F - 64.4 °F 93% 30.08 in 10.0 mi South 5.8 mph - N/A   Clear
3:15 AM 66.4 °F - 64.4 °F 93% 30.08 in 10.0 mi South 5.8 mph - N/A   Clear
3:35 AM 66.6 °F - 64.6 °F 93% 30.08 in 10.0 mi South 6.9 mph - N/A   Clear
3:55 AM 66.6 °F - 64.6 °F 93% 30.08 in 10.0 mi South 5.8 mph - N/A   Clear
4:15 AM 66.7 °F - 64.6 °F 93% 30.07 in 10.0 mi South 6.9 mph - N/A   Clear
4:35 AM 66.7 °F - 64.6 °F 93% 30.07 in 10.0 mi SSW 8.1 mph - N/A   Clear
4:55 AM 67.1 °F - 64.8 °F 92% 30.08 in 10.0 mi SSW 8.1 mph - N/A   Clear
5:15 AM 67.1 °F - 64.4 °F 91% 30.07 in 10.0 mi SSW 9.2 mph - N/A   Clear
5:35 AM 68.0 °F - 64.8 °F 89% 30.07 in 10.0 mi SSW 8.1 mph - N/A   Clear
5:55 AM 68.0 °F - 64.4 °F 88% 30.08 in 10.0 mi SW 8.1 mph - N/A   Scattered Clouds
6:15 AM 68.0 °F - 64.6 °F 89% 30.09 in 10.0 mi SW 8.1 mph - N/A   Scattered Clouds
6:35 AM 68.0 °F - 64.6 °F 89% 30.09 in 10.0 mi SSW 8.1 mph - N/A   Mostly Cloudy
6:55 AM 68.0 °F - 64.8 °F 89% 30.11 in 10.0 mi SW 5.8 mph - N/A   Overcast
7:15 AM 68.0 °F - 64.9 °F 90% 30.11 in 10.0 mi SW 5.8 mph - N/A   Overcast
7:35 AM 68.0 °F - 65.3 °F 91% 30.13 in 10.0 mi SW 5.8 mph - N/A   Overcast
7:55 AM 68.0 °F - 65.3 °F 91% 30.13 in 10.0 mi SW 5.8 mph - N/A Rain Rain
8:15 AM 67.1 °F - 65.5 °F 95% 30.14 in 7.0 mi SW 3.5 mph - 0.02 in Rain Rain
8:35 AM 66.6 °F - 65.8 °F 98% 30.15 in 4.0 mi WSW 3.5 mph - 0.09 in Rain Heavy Rain
8:55 AM 57.7 °F - 56.1 °F 94% 30.19 in 4.0 mi North 9.2 mph 23.0 mph 0.22 in Rain Light Rain
9:15 AM 53.4 °F - 52.5 °F 97% 30.22 in 10.0 mi North 5.8 mph - N/A   Drizzle
9:35 AM 50.7 °F - 50.0 °F 97% 30.24 in 7.0 mi North 8.1 mph - N/A   Drizzle
9:55 AM 49.8 °F - 49.1 °F 97% 30.26 in 3.0 mi North 8.1 mph - 0.01 in Rain Rain
10:15 AM 48.9 °F - 48.2 °F 97% 30.26 in 3.0 mi NNE 6.9 mph - N/A   Drizzle
10:35 AM 48.6 °F - 48.2 °F 99% 30.27 in 4.0 mi NNE 5.8 mph - N/A   Light Drizzle
10:55 AM 48.6 °F - 48.2 °F 99% 30.27 in 3.0 mi NNE 8.1 mph - N/A   Light Drizzle
11:15 AM 48.6 °F - 48.2 °F 99% 30.28 in 4.0 mi NNE 6.9 mph - N/A   Light Drizzle
11:35 AM 47.5 °F - 46.9 °F 98% 30.28 in 2.5 mi North 5.8 mph - N/A   Light Drizzle
11:55 AM 47.3 °F - 46.6 °F 97% 30.27 in 3.0 mi North 6.9 mph - N/A   Light Drizzle
12:15 PM 47.3 °F - 46.8 °F 98% 30.28 in 2.5 mi NNE 5.8 mph - N/A   Light Drizzle
12:35 PM 47.5 °F - 47.3 °F 99% 30.27 in 2.5 mi North 4.6 mph - 0.01 in   Light Drizzle
12:55 PM 46.6 °F - 46.0 °F 98% 30.27 in 7.0 mi NNE 8.1 mph - 0.01 in   Overcast
1:15 PM 46.4 °F 44.3 °F 45.5 °F 97% 30.27 in 10.0 mi NNE 4.6 mph - N/A   Overcast
1:35 PM 46.8 °F - 44.8 °F 93% 30.28 in 10.0 mi NNE 5.8 mph - N/A   Overcast
1:55 PM 46.8 °F - 44.8 °F 93% 30.27 in 10.0 mi North 4.6 mph - N/A   Overcast
2:15 PM 46.4 °F 43.5 °F 43.3 °F 89% 30.28 in 10.0 mi NNE 5.8 mph - N/A   Overcast
2:35 PM 46.8 °F - 42.3 °F 84% 30.28 in 10.0 mi NNE 3.5 mph - N/A   Overcast
2:55 PM 46.9 °F - 42.3 °F 84% 30.29 in 10.0 mi NNE 5.8 mph - N/A   Overcast
3:15 PM 46.9 °F - 42.8 °F 86% 30.29 in 7.0 mi NNE 3.5 mph - N/A   Overcast
3:35 PM 46.0 °F 43.9 °F 43.9 °F 92% 30.30 in 4.0 mi NNE 4.6 mph - N/A   Overcast
3:55 PM 45.7 °F - 44.4 °F 95% 30.30 in 7.0 mi Calm Calm - N/A   Overcast
4:15 PM 46.0 °F 44.8 °F 44.2 °F 93% 30.30 in 10.0 mi NNE 3.5 mph - N/A   Overcast
4:35 PM 46.0 °F - 43.9 °F 92% 30.32 in 10.0 mi Calm Calm - N/A   Overcast
4:55 PM 45.9 °F - 42.8 °F 89% 30.33 in 10.0 mi Calm Calm - N/A Rain Light Rain
5:15 PM 45.5 °F - 42.1 °F 88% 30.33 in 10.0 mi Calm Calm - N/A   Overcast
5:35 PM 45.7 °F - 41.9 °F 87% 30.34 in 10.0 mi Calm Calm - N/A Rain Rain
5:55 PM 45.1 °F 42.8 °F 41.9 °F 88% 30.35 in 10.0 mi NNE 4.6 mph - N/A Rain Rain
6:15 PM 44.8 °F 43.3 °F 42.1 °F 90% 30.35 in 10.0 mi NNE 3.5 mph - N/A   Drizzle
6:35 PM 44.6 °F 42.2 °F 41.7 °F 90% 30.36 in 10.0 mi NNE 4.6 mph - N/A   Overcast
6:55 PM 45.0 °F - 41.2 °F 87% 30.37 in 10.0 mi Calm Calm - N/A   Overcast
7:15 PM 45.0 °F 42.6 °F 41.2 °F 87% 30.39 in 10.0 mi NE 4.6 mph - N/A   Overcast
7:35 PM 44.6 °F - 41.0 °F 87% 30.37 in 10.0 mi Calm Calm - 0.01 in Rain Light Rain
7:55 PM 44.6 °F 43.1 °F 40.3 °F 85% 30.39 in 10.0 mi NE 3.5 mph - 0.01 in   Overcast
8:15 PM 44.8 °F 42.4 °F 40.3 °F 84% 30.39 in 10.0 mi NE 4.6 mph - N/A   Overcast
8:35 PM 45.1 °F - 40.1 °F 82% 30.39 in 10.0 mi Calm Calm - N/A Rain Rain
8:55 PM 43.9 °F 42.3 °F 41.0 °F 90% 30.40 in 7.0 mi NNE 3.5 mph - 0.03 in Rain Light Rain
9:15 PM 43.7 °F - 41.7 °F 93% 30.40 in 10.0 mi Calm Calm - N/A Rain Light Rain
9:35 PM 43.7 °F 42.1 °F 41.9 °F 93% 30.40 in 10.0 mi NE 3.5 mph - N/A   Overcast
9:55 PM 43.3 °F - 41.0 °F 91% 30.42 in 10.0 mi Calm Calm - N/A   Light Drizzle
10:15 PM 43.3 °F - 41.4 °F 93% 30.41 in 10.0 mi Calm Calm - N/A   Light Drizzle
10:35 PM 43.3 °F 41.7 °F 41.0 °F 91% 30.41 in 10.0 mi NE 3.5 mph - N/A   Light Drizzle
10:55 PM 43.0 °F 41.3 °F 41.0 °F 93% 30.41 in 10.0 mi NNE 3.5 mph - 0.03 in Rain Light Rain
11:15 PM 42.4 °F 40.7 °F 40.3 °F 92% 30.41 in 10.0 mi NE 3.5 mph - N/A   Light Drizzle
11:35 PM 42.3 °F - 40.1 °F 92% 30.42 in 10.0 mi Calm Calm - N/A   Overcast
11:55 PM 42.6 °F 40.9 °F 40.6 °F 93% 30.42 in 10.0 mi NNE 3.5 mph - N/A   Overcast